NSZ5261 EGKK-EHRD

Flight info

Callsign NSZ5261
Flight time 0h 41m
Altitude 23000
Route FRANE M604 GASBA M197 REDFA
Aircraft B738/M-SDE2E3FGHIRWXY/LB1

Departure

Time 2026-05-04 16:52
Airport London Gatwick Airport (EGKK)

Arrival

Time 2026-05-04 17:34
Airport Rotterdam The Hague Airport (EHRD)
Time Latitude Longitude Altitude Speed Heading
2026-05-04 16:03 51.15542 -0.16521 201 ft 0 kts 349°
2026-05-04 16:35 51.15517 -0.16516 203 ft 4 kts
2026-05-04 16:36 51.15490 -0.16521 203 ft 4 kts
2026-05-04 16:36 51.15444 -0.16515 209 ft 4 kts 342°
2026-05-04 16:37 51.15427 -0.16507 208 ft 0 kts 347°
2026-05-04 16:41 51.15452 -0.16652 203 ft 10 kts 258°
2026-05-04 16:42 51.15406 -0.17133 205 ft 10 kts 245°
2026-05-04 16:43 51.15360 -0.17335 210 ft 10 kts 243°
2026-05-04 16:43 51.15295 -0.17499 204 ft 9 kts 259°
2026-05-04 16:43 51.15281 -0.17605 207 ft 11 kts 257°
2026-05-04 16:44 51.15174 -0.18401 209 ft 26 kts 258°
2026-05-04 16:45 51.15093 -0.19011 204 ft 28 kts 257°
2026-05-04 16:46 51.14977 -0.19852 208 ft 23 kts 258°
2026-05-04 16:46 51.14909 -0.20340 206 ft 22 kts 257°
2026-05-04 16:47 51.14845 -0.20800 201 ft 21 kts 258°
2026-05-04 16:47 51.14812 -0.21053 209 ft 0 kts 257°
2026-05-04 16:50 51.14811 -0.21060 207 ft 2 kts 257°
2026-05-04 16:50 51.14767 -0.21309 207 ft 18 kts 259°
2026-05-04 16:51 51.14574 -0.21303 205 ft 17 kts 152°
2026-05-04 16:51 51.14516 -0.21156 204 ft 10 kts 79°
2026-05-04 16:51 51.14530 -0.21052 210 ft 34 kts 78°
2026-05-04 16:52 51.14833 -0.18847 243 ft 157 kts 76°
2026-05-04 16:52 51.15068 -0.17115 849 ft 164 kts 77°
2026-05-04 16:53 51.15590 -0.13389 1906 ft 197 kts 77°
2026-05-04 16:53 51.16630 -0.05814 2478 ft 269 kts 77°
2026-05-04 16:54 51.16993 -0.02838 3186 ft 274 kts 84°
2026-05-04 16:55 51.16686 0.08987 5006 ft 270 kts 90°
2026-05-04 16:55 51.16561 0.14963 5245 ft 272 kts 91°
2026-05-04 16:56 51.16555 0.21087 6806 ft 277 kts 88°
2026-05-04 16:56 51.16583 0.30378 8996 ft 285 kts 90°
2026-05-04 16:57 51.16587 0.33548 9721 ft 288 kts 90°
2026-05-04 16:57 51.16593 0.40010 11024 ft 295 kts 91°
2026-05-04 16:58 51.16664 0.49954 13052 ft 305 kts 80°
2026-05-04 16:58 51.17481 0.53061 13744 ft 308 kts 52°
2026-05-04 16:59 51.21149 0.56448 14935 ft 318 kts 13°
2026-05-04 17:00 51.29968 0.59564 17556 ft 332 kts 13°
2026-05-04 17:00 51.36854 0.62172 19331 ft 346 kts 13°
2026-05-04 17:01 51.41579 0.63959 20502 ft 352 kts 12°
2026-05-04 17:01 51.46409 0.65773 21636 ft 360 kts 12°
2026-05-04 17:02 51.51337 0.67630 22766 ft 368 kts 12°
2026-05-04 17:02 51.56348 0.69524 23014 ft 369 kts 12°
2026-05-04 17:03 51.58851 0.70472 23025 ft 369 kts 12°
2026-05-04 17:03 51.61351 0.71419 23027 ft 369 kts 12°
2026-05-04 17:03 51.66354 0.73317 23027 ft 370 kts 12°
2026-05-04 17:04 51.71361 0.75221 23020 ft 370 kts 12°
2026-05-04 17:04 51.76367 0.77139 23012 ft 370 kts 12°
2026-05-04 17:05 51.81278 0.79424 23007 ft 371 kts 24°
2026-05-04 17:05 51.85441 0.84349 23014 ft 385 kts 54°
2026-05-04 17:06 51.87074 0.92751 23044 ft 410 kts 86°
2026-05-04 17:06 51.87341 0.97429 23013 ft 424 kts 85°
2026-05-04 17:07 51.88343 1.06907 22990 ft 426 kts 78°
2026-05-04 17:07 51.88814 1.10043 22993 ft 424 kts 76°
2026-05-04 17:07 51.89842 1.16133 23000 ft 422 kts 75°
2026-05-04 17:07 51.90660 1.20690 23002 ft 421 kts 74°
2026-05-04 17:08 51.91485 1.25229 23001 ft 420 kts 74°
2026-05-04 17:08 51.93128 1.34324 23009 ft 421 kts 75°
2026-05-04 17:08 51.93942 1.38883 23010 ft 421 kts 75°
2026-05-04 17:09 51.94752 1.43448 23013 ft 422 kts 75°
2026-05-04 17:09 51.95562 1.48032 22996 ft 423 kts 75°
2026-05-04 17:09 51.96369 1.52613 23010 ft 424 kts 75°
2026-05-04 17:10 51.97986 1.61822 23002 ft 425 kts 75°
2026-05-04 17:10 52.00304 1.75564 22991 ft 406 kts 77°
2026-05-04 17:11 52.00984 1.79954 22699 ft 399 kts 77°
2026-05-04 17:11 52.01649 1.84285 22377 ft 394 kts 77°
2026-05-04 17:11 52.02961 1.92828 21571 ft 386 kts 77°
2026-05-04 17:12 52.03610 1.97032 21161 ft 383 kts 77°
2026-05-04 17:12 52.04894 2.05358 20355 ft 377 kts 77°
2026-05-04 17:13 52.06781 2.17644 19176 ft 370 kts 77°
2026-05-04 17:14 52.08613 2.29670 17975 ft 364 kts 77°
2026-05-04 17:14 52.09217 2.33652 17542 ft 362 kts 77°
2026-05-04 17:14 52.10411 2.41549 16734 ft 357 kts 77°
2026-05-04 17:15 52.10994 2.45443 16495 ft 352 kts 78°
2026-05-04 17:15 52.10401 2.53097 15972 ft 344 kts 114°
2026-05-04 17:16 52.08374 2.60300 15497 ft 354 kts 116°
2026-05-04 17:16 52.05298 2.71039 14414 ft 346 kts 116°
2026-05-04 17:17 52.04292 2.74588 14033 ft 345 kts 116°
2026-05-04 17:17 52.01312 2.85124 12829 ft 339 kts 115°
2026-05-04 17:18 52.00331 2.88596 12454 ft 337 kts 115°
2026-05-04 17:18 51.98386 2.95460 11709 ft 332 kts 115°
2026-05-04 17:19 51.96465 3.02222 10985 ft 328 kts 115°
2026-05-04 17:19 51.94574 3.08862 10437 ft 317 kts 115°
2026-05-04 17:20 51.92771 3.15173 10182 ft 300 kts 115°
2026-05-04 17:20 51.91058 3.21157 9800 ft 288 kts 116°
2026-05-04 17:20 51.90215 3.24096 9508 ft 287 kts 116°
2026-05-04 17:21 51.88544 3.29905 8932 ft 283 kts 115°
2026-05-04 17:21 51.86896 3.35626 8359 ft 279 kts 115°
2026-05-04 17:22 51.86076 3.38466 8080 ft 278 kts 115°
2026-05-04 17:22 51.85260 3.41288 7799 ft 276 kts 115°
2026-05-04 17:23 51.82836 3.49662 6977 ft 272 kts 115°
2026-05-04 17:23 51.82033 3.52428 6703 ft 271 kts 115°
2026-05-04 17:23 51.80704 3.56995 6239 ft 269 kts 115°
2026-05-04 17:24 51.80085 3.59826 5964 ft 267 kts 94°
2026-05-04 17:24 51.80827 3.68469 5708 ft 259 kts 79°
2026-05-04 17:25 51.81144 3.71346 5617 ft 261 kts 79°
2026-05-04 17:25 51.81776 3.77174 5433 ft 264 kts 79°
2026-05-04 17:26 51.82397 3.83010 5248 ft 263 kts 79°
2026-05-04 17:26 51.83317 3.91701 4953 ft 254 kts 80°
2026-05-04 17:27 51.83825 3.97077 4543 ft 235 kts 93°
2026-05-04 17:27 51.82711 4.01956 3762 ft 232 kts 94°
2026-05-04 17:28 51.83435 4.06887 3353 ft 226 kts 70°
2026-05-04 17:29 51.84976 4.14010 2933 ft 222 kts 70°
2026-05-04 17:29 51.86462 4.21025 2515 ft 218 kts 66°
2026-05-04 17:30 51.89220 4.26482 2095 ft 206 kts 69°
2026-05-04 17:31 51.89130 4.30848 1791 ft 186 kts 76°
2026-05-04 17:31 51.91431 4.35176 1510 ft 163 kts 35°
2026-05-04 17:32 51.93133 4.37570 844 ft 154 kts 53°
2026-05-04 17:33 51.94588 4.41265 319 ft 131 kts 50°
2026-05-04 17:33 51.95089 4.42524 138 ft 129 kts 50°
2026-05-04 17:34 51.95869 4.44716 0 ft 14 kts 146°
2026-05-04 17:34 51.95836 4.44749 0 ft 0 kts 154°
2026-05-04 17:35 51.95779 4.44737 0 ft 14 kts 227°
2026-05-04 17:35 51.95623 4.44350 0 ft 20 kts 237°
2026-05-04 17:35 51.95549 4.44166 0 ft 19 kts 237°
2026-05-04 17:36 51.95478 4.43988 0 ft 19 kts 238°
2026-05-04 17:36 51.95409 4.43815 0 ft 18 kts 236°
2026-05-04 17:36 51.95343 4.43649 0 ft 17 kts 237°
2026-05-04 17:36 51.95290 4.43519 0 ft 9 kts 230°
2026-05-04 17:37 51.95236 4.43520 0 ft 9 kts 150°
2026-05-04 17:37 51.95186 4.43571 0 ft 8 kts 148°
2026-05-04 17:37 51.95139 4.43620 0 ft 7 kts 149°
2026-05-04 17:37 51.95098 4.43589 0 ft 7 kts 234°
2026-05-04 17:38 51.95070 4.43523 0 ft 7 kts 236°
2026-05-04 17:38 51.95044 4.43456 0 ft 7 kts 237°
2026-05-04 17:38 51.95033 4.43411 0 ft 1 kts 300°
2026-05-04 17:38 51.95044 4.43398 0 ft 2 kts 322°
2026-05-04 17:39 51.95066 4.43374 0 ft 0 kts 326°